Weather History for Elizabethton, TN

Change the Weather History Date:

Wednesday, July 3, 2013

  Actual Average (KTRI) Record (KTRI)
Temperature  
Mean Temperature 66 °F 74 °F  
Max Temperature 71 °F 85 °F 95 °F (1970)
Min Temperature 60 °F 64 °F 51 °F (2009)
Degree Days  
Heating Degree Days 0 0  
Month to date heating degree days 0  
Since 1 June heating degree days 11  
Since 1 July heating degree days 0  
Cooling Degree Days 2 9  
Month to date cooling degree days 27  
Year to date cooling degree days 306  
Since 1 June cooling degree days 233  
Growing Degree Days 16 (Base 50)    
Moisture  
Dew Point 64 °F    
Average Humidity 94    
Maximum Humidity 100    
Minimum Humidity 78    
Precipitation  
Precipitation 0.00 in 0.15 in 2.13 in (2002)
Month to date precipitation 0.43  
Year to date precipitation 21.72  
Snow  
Snow 0.00 in 0.00 in - ()
Month to date snowfall 0.0  
Since 1 June snowfall 0.0  
Since 1 July snowfall 0.0  
Snow Depth -    
Sea Level Pressure  
Sea Level Pressure 30.21 in    
Wind  
Wind Speed 3 mph (East)    
Max Wind Speed 10 mph    
Max Gust Speed -    
Visibility 8 miles    
Events Fog , Rain    
T = Trace of Precipitation, MM = Missing Value Source: NWS Daily Summary

Daily Weather History Graph

Daily Weather History Graph

Search for Another Location

Airport:

Trip Planner

Search our weather history database for the weather conditions in past years. The results will help you decide how hot, cold, wet, or windy it might be!

Date:

Astronomy

Jul. 03, 2013 Rise Set
Actual Time 6:15 AM EDT 8:50 PM EDT
Civil Twilight 5:45 AM EDT 9:20 PM EDT
Nautical Twilight 5:07 AM EDT 9:57 PM EDT
Astronomical Twilight 4:25 AM EDT 10:39 PM EDT
Moon 2:49 AM EDT (7/3) 5:02 PM EDT (7/3)
Length of Visible Light 15h 35m
Length of Day
14h 34m
Waning Crescent, 18% of the Moon is Illuminated
Jul 3
Waning Crescent
Jul 8
New
Jul 15
First Quarter
Jul 22
Full
Jul 29
Last Quarter

Hourly Weather History & Observations

Time (EDT) Temp. Dew Point Humidity Pressure Visibility Wind Dir Wind Speed Gust Speed Precip Events Conditions
12:15 AM 68.0 °F 62.6 °F 83% 30.15 in 10.0 mi ENE 4.6 mph - N/A   Clear
12:35 AM 66.2 °F 62.6 °F 88% 30.15 in 10.0 mi Calm Calm - N/A   Clear
12:55 AM 64.4 °F 62.6 °F 94% 30.15 in 10.0 mi Calm Calm - N/A   Partly Cloudy
1:15 AM 66.2 °F 62.6 °F 88% 30.14 in 10.0 mi East 3.5 mph - N/A   Clear
1:35 AM 66.2 °F 62.6 °F 88% 30.14 in 10.0 mi East 3.5 mph - N/A   Clear
1:55 AM 68.0 °F 62.6 °F 83% 30.14 in 10.0 mi East 5.8 mph - N/A   Partly Cloudy
2:15 AM 68.0 °F 62.6 °F 83% 30.13 in 10.0 mi Calm Calm - N/A   Clear
2:55 AM 69.8 °F 62.6 °F 78% 30.13 in 10.0 mi East 4.6 mph - N/A   Mostly Cloudy
3:15 AM 68.0 °F 62.6 °F 83% 30.13 in 10.0 mi Calm Calm - N/A   Mostly Cloudy
3:35 AM 68.0 °F 62.6 °F 83% 30.13 in 10.0 mi Calm Calm - N/A   Overcast
3:55 AM 66.2 °F 62.6 °F 88% 30.14 in 10.0 mi Calm Calm - N/A   Overcast
4:15 AM 66.2 °F 62.6 °F 88% 30.14 in 10.0 mi Calm Calm - N/A   Scattered Clouds
4:35 AM 66.2 °F 62.6 °F 88% 30.15 in 10.0 mi ENE 3.5 mph - N/A   Scattered Clouds
4:55 AM 66.2 °F 62.6 °F 88% 30.15 in 10.0 mi Calm Calm - N/A   Mostly Cloudy
5:15 AM 66.2 °F 64.4 °F 94% 30.16 in 10.0 mi Calm Calm - N/A   Overcast
5:35 AM 66.2 °F 64.4 °F 94% 30.16 in 10.0 mi Calm Calm - N/A   Light Drizzle
5:55 AM 66.2 °F 64.4 °F 94% 30.16 in 10.0 mi Calm Calm - N/A   Overcast
6:15 AM 66.2 °F 64.4 °F 94% 30.17 in 9.0 mi Calm Calm - N/A   Light Drizzle
6:35 AM 66.2 °F 64.4 °F 94% 30.18 in 10.0 mi Calm Calm - N/A   Light Drizzle
6:55 AM 66.2 °F 64.4 °F 94% 30.18 in 9.0 mi Calm Calm - N/A   Light Drizzle
7:15 AM 66.2 °F 64.4 °F 94% 30.18 in 8.0 mi East 4.6 mph - N/A   Light Drizzle
7:35 AM 66.2 °F 64.4 °F 94% 30.19 in 7.0 mi Calm Calm - N/A Rain Rain
7:55 AM 66.2 °F 64.4 °F 94% 30.20 in 6.0 mi Variable 3.5 mph - N/A Rain Rain
8:15 AM 66.2 °F 64.4 °F 94% 30.20 in 7.0 mi East 5.8 mph - N/A Rain Light Rain
8:35 AM 66.2 °F 66.2 °F 100% 30.22 in 7.0 mi East 6.9 mph - N/A Rain Light Rain
8:55 AM 66.2 °F 66.2 °F 100% 30.22 in 7.0 mi Calm Calm - N/A Rain Rain
9:15 AM 66.2 °F 66.2 °F 100% 30.22 in 7.0 mi East 5.8 mph - N/A   Light Drizzle
9:35 AM 68.0 °F 66.2 °F 94% 30.22 in 9.0 mi East 4.6 mph - N/A   Mostly Cloudy
9:55 AM 68.0 °F 66.2 °F 94% 30.21 in 10.0 mi ENE 3.5 mph - N/A   Overcast
10:15 AM 68.0 °F 66.2 °F 94% 30.22 in 5.0 mi ESE 4.6 mph - N/A Rain Light Rain
10:35 AM 68.0 °F 66.2 °F 94% 30.22 in 5.0 mi ENE 3.5 mph - N/A Rain Light Rain
10:55 AM 68.0 °F 66.2 °F 94% 30.22 in 9.0 mi Calm Calm - N/A   Light Drizzle
11:15 AM 69.8 °F 66.2 °F 88% 30.23 in 10.0 mi East 4.6 mph - N/A   Overcast
11:35 AM 69.8 °F 66.2 °F 88% 30.22 in 10.0 mi Calm Calm - N/A   Scattered Clouds
11:55 AM 71.6 °F 66.2 °F 83% 30.22 in 7.0 mi Calm Calm - N/A Rain Light Rain
12:15 PM 69.8 °F 66.2 °F 88% 30.24 in 4.0 mi ESE 4.6 mph - N/A Rain Rain
12:35 PM 69.8 °F 66.2 °F 88% 30.23 in 6.0 mi Calm Calm - N/A   Light Drizzle
12:55 PM 71.6 °F 68.0 °F 88% 30.23 in 10.0 mi ENE 4.6 mph - N/A   Overcast
1:15 PM 69.8 °F 68.0 °F 94% 30.23 in 2.0 mi Calm Calm - N/A Rain Heavy Rain
1:35 PM 69.8 °F 66.2 °F 88% 30.23 in 3.0 mi Calm Calm - N/A Rain Heavy Rain
1:55 PM 68.0 °F 66.2 °F 94% 30.22 in 1.5 mi Calm Calm - N/A Rain Heavy Rain
2:15 PM 68.0 °F 66.2 °F 94% 30.22 in 7.0 mi East 4.6 mph - N/A Rain Rain
2:35 PM 66.2 °F 66.2 °F 100% 30.21 in 3.0 mi East 3.5 mph - N/A Rain Heavy Rain
2:55 PM 66.2 °F 66.2 °F 100% 30.21 in 5.0 mi ENE 3.5 mph - N/A Rain Rain
3:15 PM 66.2 °F 66.2 °F 100% 30.21 in 5.0 mi Variable 6.9 mph - N/A Rain Light Rain
3:35 PM 66.2 °F 66.2 °F 100% 30.21 in 10.0 mi ENE 4.6 mph - N/A   Light Drizzle
3:55 PM 68.0 °F 66.2 °F 94% 30.21 in 10.0 mi SW 4.6 mph - N/A   Overcast
4:15 PM 64.4 °F 62.6 °F 94% 30.22 in 0.5 mi West 10.4 mph - N/A Fog , Rain Heavy Rain
4:35 PM 64.4 °F 64.4 °F 100% 30.22 in 8.0 mi SW 10.4 mph - N/A Rain Light Rain
4:55 PM 64.4 °F 64.4 °F 100% 30.22 in 9.0 mi SW 8.1 mph - N/A Rain Light Rain
5:15 PM 64.4 °F 64.4 °F 100% 30.23 in 10.0 mi WSW 5.8 mph - N/A   Light Drizzle
5:35 PM 64.4 °F 64.4 °F 100% 30.23 in 7.0 mi WNW 3.5 mph - N/A Rain Rain
5:55 PM 64.4 °F 64.4 °F 100% 30.24 in 5.0 mi Calm Calm - N/A Rain Heavy Rain
6:15 PM 64.4 °F 64.4 °F 100% 30.24 in 5.0 mi WNW 3.5 mph - N/A Rain Heavy Rain
6:35 PM 64.4 °F 64.4 °F 100% 30.25 in 7.0 mi Calm Calm - N/A Rain Heavy Rain
6:55 PM 64.4 °F 62.6 °F 94% 30.26 in 6.0 mi WSW 8.1 mph - N/A Rain Heavy Rain
7:15 PM 62.6 °F 62.6 °F 100% 30.27 in 5.0 mi WSW 5.8 mph - N/A Rain Heavy Rain
7:35 PM 62.6 °F 62.6 °F 100% 30.28 in 4.0 mi WSW 5.8 mph - N/A Rain Heavy Rain
7:55 PM 62.6 °F 62.6 °F 100% 30.27 in 8.0 mi WSW 4.6 mph - N/A Rain Heavy Rain
8:15 PM 62.6 °F 62.6 °F 100% 30.28 in 6.0 mi Calm Calm - N/A Rain Rain
8:35 PM 62.6 °F 62.6 °F 100% 30.27 in 7.0 mi Calm Calm - N/A Rain Light Rain
8:55 PM 62.6 °F 62.6 °F 100% 30.26 in 10.0 mi Calm Calm - N/A   Light Drizzle
9:15 PM 62.6 °F 62.6 °F 100% 30.24 in 10.0 mi ENE 4.6 mph - N/A   Clear
9:35 PM 62.6 °F 62.6 °F 100% 30.25 in 10.0 mi Calm Calm - N/A   Clear
9:55 PM 62.6 °F 62.6 °F 100% 30.25 in 10.0 mi Calm Calm - N/A   Clear
10:15 PM 62.6 °F 62.6 °F 100% 30.23 in 10.0 mi Calm Calm - N/A   Clear
10:35 PM 62.6 °F 62.6 °F 100% 30.24 in 10.0 mi ENE 3.5 mph - N/A   Clear
10:55 PM 62.6 °F 62.6 °F 100% 30.25 in 10.0 mi NNE 4.6 mph - N/A   Clear
11:15 PM 62.6 °F 60.8 °F 94% 30.23 in 10.0 mi ESE 5.8 mph - N/A   Clear
11:35 PM 62.6 °F 60.8 °F 94% 30.22 in 10.0 mi East 6.9 mph - N/A   Clear
11:55 PM 60.8 °F 60.8 °F 100% 30.23 in 10.0 mi East 4.6 mph - N/A   Clear